Вернуться в каталог

SL-8 R/B

АктивенLEO
NORAD 4370·ROCKET BODY·🇷🇺 Russia

Запущен Apr 11, 1970 с Plesetsk Cosmodrome

Loading…

Ближайшие Пролёты (ближайшие 24 часа)

TLE

СвежийSource: Space-Track

Эпоха: Sep 14, 2026, 13:56 UTC

1 04370U 70028B   26257.58093808  .00000268  00000-0  57625-4 0  9999
2 04370  74.0374 118.9178 0015510 255.5854 104.3593 14.63467753504541

Отслеживайте SL-8 R/B в реальном времени с AllMySat

Download on the App Store